Station GTOT2 - 8771450 - Galveston Pier 21, TX Image indicating link to RSS feed of recent meteorological observations for station GTOT2


Conditions at GTOT2 as of
(1:18 pm CDT)
1818 GMT on 05/20/2024:
     

Click on the graph icon in the table below to see a time series plot of the last five days of that observation.

5-day plot - Wind Direction Wind Direction (WDIR):ESE ( 120 deg true )
5-day plot - Wind Speed Wind Speed (WSPD): 8.0 kts
5-day plot - Wind Gust Wind Gust (GST): 11.1 kts
5-day plot - Atmospheric Pressure Atmospheric Pressure (PRES):29.86 in
5-day plot - Air Temperature Air Temperature (ATMP): 81.5 °F
5-day plot - Water Temperature Water Temperature (WTMP): 81.3 °F
5-day plot - Wind Speed at 10 Meters Wind Speed at 10 meters (WSPD10M): 7.8 kts
5-day plot - Wind Speed at 20 Meters Wind Speed at 20 meters (WSPD20M): 7.8 kts
5-day plot -  Wind Speed, Wind Gust and Atmospheric Pressure Combined plot of Wind Speed, Gust, and Air Pressure
NOS Water Level Observation Network Water Level
Previous observations
TIME
(CDT)
5-day plot - Wind Direction
WDIR
 
5-day plot - Wind Speed
WSPD
kts
5-day plot - Wind Gust
GST
kts
5-day plot - Wave Height
WVHT
ft
5-day plot - Dominant Wave Period
DPD
sec
5-day plot - Average Wave Period
APD
sec
5-day plot - Mean Wave Direction
MWD
 
5-day plot - Atmospheric Pressure
PRES
in
5-day plot - Pressure Tendency
PTDY
in
5-day plot - Air Temperature
ATMP
°F
5-day plot - Water Temperature
WTMP
°F
5-day plot - Dew Point
DEWP
°F
5-day plot - Salinity
SAL
psu
5-day plot - Visibility
VIS
nmi
5-day plot - Tide (above MLLW)
TIDE
ft
2024-05-20 01:12 pm E 7.0 11.1----29.86- 82.0 81.3----
2024-05-20 01:06 pmESE 8.0 13.0----29.86- 81.9 81.3----
2024-05-20 01:00 pmESE 8.0 12.0----29.87+0.01 81.7 81.3----
2024-05-20 12:54 pmESE 8.0 12.0----29.87- 81.1 81.3----
2024-05-20 12:48 pm E 7.0 12.0----29.86- 81.9 81.3----
2024-05-20 12:42 pmESE 8.0 14.0----29.86- 81.5 81.3----
2024-05-20 12:36 pm E 8.0 13.0----29.86- 81.9 81.3----
2024-05-20 12:30 pmESE 7.0 12.0----29.86- 82.2 81.3----
2024-05-20 12:24 pm E 8.0 12.0----29.86- 81.9 81.3----
2024-05-20 12:18 pm SE 7.0 11.1----29.86- 81.7 81.3----
2024-05-20 12:12 pmESE 7.0 9.9----29.86- 82.4 81.3----
2024-05-20 12:06 pmESE 6.0 11.1----29.86- 82.2 81.3----
2024-05-20 12:00 pmESE 6.0 11.1----29.86+0.03 82.4 81.3----
2024-05-20 11:54 amESE 9.9 11.1----29.87- 81.5 81.3----
2024-05-20 11:36 amESE 6.0 12.0----29.87- 82.0 81.3----
2024-05-20 11:30 am SE 6.0 8.9----29.87- 82.2 81.3----
2024-05-20 11:24 am SE 7.0 9.9----29.86- 81.5 81.3----
2024-05-20 11:18 am SE 6.0 9.9----29.86- 81.1 81.3----
2024-05-20 11:12 am SE 7.0 9.9----29.86- 81.1 81.3----
2024-05-20 11:06 am SE 5.1 8.9----29.86- 81.9 81.3----
2024-05-20 11:00 am SE 6.0 9.9----29.86+0.04 81.3 81.3----
2024-05-20 10:54 amSSE 5.1 9.9----29.86- 81.7 81.3----
2024-05-20 10:48 amESE 8.0 11.1----29.85- 81.1 81.3----
2024-05-20 10:42 am SE 8.0 11.1----29.85- 81.0 81.3----
2024-05-20 10:36 amSSE 4.1 8.9----29.85- 81.9 81.3----
2024-05-20 10:30 am SE 5.1 11.1----29.85- 81.5 81.3----
2024-05-20 10:24 amSSE 5.1 8.9----29.85- 81.3 81.3----
2024-05-20 10:18 am SE 5.1 8.9----29.85- 81.7 81.3----
2024-05-20 10:12 am SE 5.1 8.9----29.85- 81.5 81.3----
2024-05-20 10:06 amSSE 5.1 8.9----29.85- 81.0 81.3----
2024-05-20 10:00 amSSE 2.9 7.0----29.85+0.06 80.8 81.3----
2024-05-20 09:54 am SE 4.1 8.0----29.85- 81.7 81.3----
2024-05-20 09:48 am SE 5.1 8.9----29.85- 81.7 81.3----
2024-05-20 09:42 am SE 5.1 8.9----29.85- 81.1 81.3----
2024-05-20 09:36 am S 6.0 9.9----29.85- 80.4 81.3----
2024-05-20 09:30 amSSE 4.1 8.0----29.85- 80.8 81.3----
2024-05-20 09:24 amSSE 5.1 8.0----29.85- 80.6 81.3----
2024-05-20 09:18 amSSE 5.1 8.0----29.85- 80.6 81.3----
2024-05-20 09:12 amSSE 4.1 9.9----29.85- 80.2 81.3----
2024-05-20 09:06 amSSE 4.1 8.9----29.84- 80.2 81.3----
2024-05-20 09:00 am S 5.1 8.0----29.84+0.04 80.1 81.3----
2024-05-20 08:54 amSSE 4.1 8.0----29.83- 80.2 81.3----
2024-05-20 08:48 am S 4.1 8.9----29.83- 80.4 81.3----
2024-05-20 08:42 amSSE 5.1 7.0----29.83- 80.4 81.3----
2024-05-20 08:36 amSSE 4.1 8.0----29.83- 80.2 81.3----
2024-05-20 08:30 am S 5.1 7.0----29.82- 80.1 81.3----
2024-05-20 08:24 am S 5.1 7.0----29.82- 80.1 81.3----
2024-05-20 08:18 amSSE 6.0 8.0----29.83- 79.9 81.3----
2024-05-20 08:12 amSSE 2.9 6.0----29.82- 80.1 81.3----
2024-05-20 08:06 am S 2.9 7.0----29.82- 79.9 81.5----
2024-05-20 08:00 am S 4.1 8.0----29.82+0.01 79.7 81.5----
2024-05-20 07:54 amSSE 5.1 7.0----29.81- 79.2 81.5----
2024-05-20 07:48 am S 5.1 7.0----29.82- 79.0 81.5----
2024-05-20 07:42 am S 5.1 8.0----29.81- 78.6 81.5----
2024-05-20 07:36 amSSE 4.1 8.0----29.81- 78.6 81.5----
2024-05-20 07:30 am S 5.1 8.9----29.80- 78.6 81.5----
2024-05-20 07:24 am S 5.1 8.0----29.80- 78.6 81.5----
2024-05-20 07:18 am S 4.1 8.9----29.80- 78.4 81.5----
2024-05-20 07:12 amSSE 5.1 8.0----29.80- 78.3 81.5----
2024-05-20 07:06 am S 5.1 8.9----29.80- 78.3 81.5----
2024-05-20 07:00 am S 4.1 7.0----29.80-0.02 78.1 81.5----
2024-05-20 06:54 amSSE 4.1 8.0----29.80- 77.9 81.5----
2024-05-20 06:48 amSSE 1.9 7.0----29.79- 77.7 81.5----
2024-05-20 06:42 am SE 2.9 7.0----29.79- 77.5 81.5----
2024-05-20 06:36 amSSE 4.1 6.0----29.79- 77.5 81.7----
2024-05-20 06:30 am S 5.1 8.0----29.79- 77.5 81.7----
2024-05-20 06:24 am S 4.1 6.0----29.80- 77.7 81.7----
2024-05-20 06:18 amSSE 4.1 7.0----29.80- 77.7 81.7----
2024-05-20 06:12 amSSE 2.9 7.0----29.80- 77.7 81.7----
2024-05-20 06:06 am S 6.0 8.9----29.80- 77.7 81.7----
2024-05-20 06:00 am S 4.1 8.0----29.80-0.02 77.7 81.7----
2024-05-20 05:54 am S 5.1 8.0----29.80- 77.7 81.7----
2024-05-20 05:48 am S 4.1 7.0----29.80- 77.7 81.9----
2024-05-20 05:42 am S 4.1 8.0----29.80- 77.7 81.9----
2024-05-20 05:36 am S 5.1 6.0----29.80- 77.9 81.9----
2024-05-20 05:30 am S 4.1 7.0----29.80- 77.9 81.9----
2024-05-20 05:24 am S 4.1 8.0----29.81- 77.9 81.9----
2024-05-20 05:18 am S 5.1 8.0----29.81- 77.9 81.9----
2024-05-20 05:12 am S 5.1 8.9----29.81- 77.9 82.0----
2024-05-20 05:06 am S 4.1 8.9----29.81- 77.9 82.0----
2024-05-20 05:00 am S 5.1 7.0----29.81+0.00 77.9 82.0----
2024-05-20 04:54 am S 2.9 7.0----29.81- 77.9 82.0----
2024-05-20 04:48 am S 5.1 8.0----29.81- 78.1 82.0----
2024-05-20 04:42 am S 4.1 7.0----29.81- 77.9 82.2----
2024-05-20 04:36 am S 6.0 9.9----29.81- 77.9 82.2----
2024-05-20 04:30 am S 6.0 9.9----29.81- 77.7 82.2----
2024-05-20 04:24 am S 5.1 8.0----29.81- 77.9 82.2----
2024-05-20 04:18 am S 5.1 7.0----29.80- 77.9 82.2----
2024-05-20 04:12 amSSE 5.1 8.0----29.81- 77.9 82.2----
2024-05-20 04:06 am S 6.0 8.9----29.81- 77.9 82.2----
2024-05-20 04:00 amSSE 4.1 7.0----29.81-0.03 78.1 82.4----
2024-05-20 03:54 am S 6.0 9.9----29.81- 78.1 82.4----
2024-05-20 03:48 am S 5.1 8.0----29.81- 78.1 82.4----
2024-05-20 03:42 am S 5.1 8.0----29.81- 78.1 82.4----
2024-05-20 03:36 am S 4.1 8.9----29.82- 78.1 82.4----
2024-05-20 03:30 am S 4.1 7.0----29.82- 78.1 82.4----
2024-05-20 03:24 am S 5.1 7.0----29.82- 78.3 82.4----
2024-05-20 03:18 am S 2.9 7.0----29.82- 78.3 82.6----
2024-05-20 03:12 am S 4.1 7.0----29.81- 78.3 82.6----
2024-05-20 03:06 am S 4.1 8.0----29.81- 78.3 82.6----
2024-05-20 03:00 am S 4.1 6.0----29.82-0.03 78.3 82.6----
2024-05-20 02:54 am S 4.1 8.9----29.82- 78.4 82.6----
2024-05-20 02:48 am S 5.1 8.0----29.82- 78.4 82.6----
2024-05-20 02:42 am S 5.1 8.0----29.82- 78.4 82.6----
2024-05-20 02:36 am S 2.9 8.0----29.82- 78.6 82.6----
2024-05-20 02:30 am S 4.1 8.0----29.82- 78.6 82.6----
2024-05-20 02:24 am S 4.1 6.0----29.82- 78.6 82.6----
2024-05-20 02:18 am S 6.0 8.0----29.81- 78.6 82.6----
2024-05-20 02:12 am S 5.1 8.0----29.81- 78.6 82.6----
2024-05-20 02:06 am S 5.1 8.0----29.82- 78.6 82.6----
2024-05-20 02:00 am S 5.1 8.9----29.82-0.03 78.8 82.6----
2024-05-20 01:54 am S 5.1 8.9----29.82- 78.8 82.6----
2024-05-20 01:48 amSSE 6.0 8.9----29.82- 78.8 82.6----
2024-05-20 01:42 am S 5.1 8.0----29.83- 78.8 82.6----
2024-05-20 01:36 am S 5.1 7.0----29.83- 78.8 82.6----
2024-05-20 01:30 am S 5.1 8.0----29.83- 79.0 82.6----
2024-05-20 01:24 am S 5.1 8.0----29.84- 79.0 82.8----
2024-05-20 01:18 am S 6.0 8.9----29.84- 79.0 82.8----
2024-05-20 01:12 amSSE 5.1 8.0----29.84- 79.0 82.8----
2024-05-20 01:06 amSSE 5.1 9.9----29.84- 79.0 82.8----
2024-05-20 01:00 am S 5.1 7.0----29.84+0.00 79.0 82.8----
2024-05-20 12:54 am S 5.1 8.0----29.84- 79.0 82.8----
2024-05-20 12:48 am S 4.1 8.9----29.84- 79.0 82.8----
2024-05-20 12:42 am S 5.1 7.0----29.84- 79.0 82.6----
2024-05-20 12:36 amSSE 5.1 7.0----29.84- 79.0 82.6----
2024-05-20 12:30 amSSE 5.1 8.9----29.85- 79.2 82.6----
2024-05-20 12:24 am S 5.1 8.0----29.85- 79.2 82.6----
2024-05-20 12:18 am-------29.85-- 82.6----
2024-05-20 12:12 am-------29.85-- 82.6----
2024-05-20 12:06 am-------29.85-- 82.6----
2024-05-20 12:00 am S 5.1 8.0----29.85+0.01 79.2 82.6----
2024-05-19 11:54 pm S 5.1 8.0----29.85- 79.3 82.6----
2024-05-19 11:48 pmSSE 5.1 8.0----29.85- 79.3 82.6----
2024-05-19 11:42 pmSSE 5.1 8.0----29.85- 79.3 82.6----
2024-05-19 11:36 pmSSE 5.1 11.1----29.85- 79.3 82.4----
2024-05-19 11:30 pm S 2.9 7.0----29.85- 79.5 82.4----
2024-05-19 11:24 pm S 6.0 8.9----29.85- 79.5 82.4----
2024-05-19 11:18 pmSSE 5.1 9.9----29.85- 79.5 82.4----
2024-05-19 11:12 pm S 5.1 8.9----29.85- 79.9 82.4----
2024-05-19 11:06 pm S 6.0 12.0----29.85- 79.9 82.4----
2024-05-19 11:00 pm S 7.0 8.9----29.85+0.01 79.9 82.4----
2024-05-19 10:54 pm S 6.0 9.9----29.85- 80.1 82.4----
2024-05-19 10:48 pm S 2.9 8.0----29.85- 80.1 82.4----
2024-05-19 10:42 pmSSE 4.1 7.0----29.84- 80.1 82.2----
2024-05-19 10:36 pmSSE 2.9 8.0----29.85- 80.2 82.2----
2024-05-19 10:30 pmSSE 4.1 9.9----29.85- 80.2 82.2----
2024-05-19 10:24 pmSSE 2.9 8.9----29.84- 80.2 82.2----
2024-05-19 10:18 pmSSE 4.1 8.0----29.84-- 82.0----
2024-05-19 10:12 pm SE 2.9 8.9----29.84-- 82.0----
2024-05-19 10:06 pm SE 5.1 8.0----29.84-- 82.0----
2024-05-19 10:00 pm SE 4.1 8.9----29.84+0.00 80.4 81.9----
2024-05-19 09:54 pm SE 5.1 8.9----29.83- 80.4 81.9----
2024-05-19 09:48 pmSSE 5.1 8.9----29.83- 80.4 81.9----
2024-05-19 09:42 pm SE 4.1 8.0----29.83- 80.4 81.9----
2024-05-19 09:36 pm SE 4.1 8.9----29.83- 80.6 81.7----
2024-05-19 09:30 pmSSE 4.1 9.9----29.83- 80.6 81.7----
2024-05-19 09:24 pm SE 4.1 8.0----29.83- 80.6 81.7----
2024-05-19 09:18 pm SE 4.1 9.9----29.83- 80.8 81.5----
2024-05-19 09:12 pmSSE 4.1 7.0----29.83- 80.8 81.5----
2024-05-19 09:06 pm SE 5.1 7.0----29.83- 81.0 81.5----
2024-05-19 09:00 pm SE 5.1 8.9----29.83- 81.1 81.5----
2024-05-19 08:54 pmSSE 4.1 8.0----29.83- 81.1 81.3----
2024-05-19 08:48 pm SE 5.1 8.0----29.83- 81.1 81.3----
2024-05-19 08:42 pmSSE 4.1 8.0----29.83- 81.3 81.3----
2024-05-19 08:36 pm SE 5.1 7.0----29.83- 81.5 81.3----
2024-05-19 08:30 pm SE 5.1 7.0----29.83-- 81.3----
2024-05-19 08:24 pm SE 4.1 8.0----29.83-- 81.3----
2024-05-19 08:18 pm SE 6.0 8.0----29.83-- 81.3----
2024-05-19 08:12 pm SE 1.9 8.9----29.83-- 81.3----
2024-05-19 08:06 pm SE 6.0 8.9----29.83-- 81.1----
2024-05-19 08:00 pm SE 6.0 8.9----29.83-0.02- 81.1----
2024-05-19 07:54 pm SE 6.0 8.9----29.83-- 81.1----
2024-05-19 07:48 pm SE 8.0 11.1----29.84- 82.0 81.1----
2024-05-19 07:42 pmESE 7.0 9.9----29.84- 82.4 81.1----
2024-05-19 07:36 pm SE 8.0 11.1----29.83- 82.4 81.1----
2024-05-19 07:30 pm SE 7.0 11.1----29.84- 82.8 81.1----
2024-05-19 07:24 pm SE 7.0 8.9----29.84- 82.8 81.1----
2024-05-19 07:18 pm---------- 81.0----
2024-05-19 07:12 pm---------- 81.0----
2024-05-19 07:06 pm---------- 81.0----
2024-05-19 07:00 pm SE 7.0 9.9----29.83-0.04- 81.0----
2024-05-19 06:54 pm SE 7.0 9.9----29.84-- 81.0----
2024-05-19 06:48 pm SE 7.0 9.9------------
2024-05-19 06:42 pm SE 6.0 11.1------------
2024-05-19 06:36 pmESE 7.0 9.9------------
2024-05-19 06:30 pmESE 7.0 9.9----29.84- 83.5 81.0----
2024-05-19 06:24 pmESE 6.0 11.1----29.84- 83.5 81.0----
2024-05-19 06:18 pmESE 8.9 12.0----29.84- 82.8 81.0----
2024-05-19 06:12 pm SE 8.0 11.1----29.83- 83.1 81.0----
2024-05-19 06:06 pmESE 7.0 12.0----29.84- 83.8 81.0----
2024-05-19 06:00 pm SE 6.0 13.0------- 81.0----
2024-05-19 05:54 pmESE 8.9 12.0------- 81.0----
2024-05-19 05:48 pm SE 8.9 12.0----29.84-- 81.0----
2024-05-19 05:42 pmESE 8.9 12.0----29.84-- 81.0----
2024-05-19 05:36 pm SE 7.0 11.1----29.84-- 81.0----
2024-05-19 05:30 pm SE 8.9 11.1----29.84-- 81.0----
2024-05-19 05:24 pmESE 6.0 8.9----29.84-- 81.0----
2024-05-19 05:18 pm-------29.84- 83.5 81.0----
2024-05-19 05:12 pm-------29.85- 83.7 81.0----
2024-05-19 05:06 pm-------29.85- 84.2 81.0----
2024-05-19 05:00 pmESE 6.0 12.0----29.85-0.05 84.2 81.0----
2024-05-19 04:54 pmESE 6.0 12.0----29.85- 84.6 81.0----
2024-05-19 04:48 pmESE 7.0 13.0----29.86- 83.1 81.0----
2024-05-19 04:42 pm E 6.0 11.1----29.86- 83.8 81.0----
2024-05-19 04:36 pm SE 7.0 11.1----29.86- 83.3 81.0----
2024-05-19 04:30 pm SE 8.0 12.0----29.86- 83.5 81.0----
2024-05-19 04:24 pm E 7.0 9.9----29.87- 84.0 81.0----
2024-05-19 04:18 pm E 5.1 11.1----29.87- 84.2 81.0----
2024-05-19 04:12 pmESE 6.0 11.1----29.87- 84.2 81.0----
2024-05-19 04:06 pmESE 7.0 11.1----29.88- 83.8 81.0----
2024-05-19 04:00 pmESE 6.0 11.1----29.88-0.04 83.7 81.0----
2024-05-19 03:54 pm E 8.0 9.9----29.88- 83.5 81.0----
2024-05-19 03:48 pm E 8.0 12.0----29.88- 83.5 81.0----
2024-05-19 03:42 pmESE 8.0 11.1----29.88- 83.3 81.0----
2024-05-19 03:36 pm E 5.1 11.1----29.88- 83.7 81.0----
2024-05-19 03:30 pmESE 7.0 11.1----29.88- 83.3 81.1----
2024-05-19 03:24 pmESE 7.0 11.1----29.89- 83.5 81.1----
2024-05-19 03:18 pmESE 7.0 8.9----29.89- 83.5 81.1----
2024-05-19 03:12 pm E 8.0 11.1----29.89- 83.1 81.1----
2024-05-19 03:06 pmESE 8.0 11.1----29.89- 83.3 81.1----
2024-05-19 03:00 pmESE 6.0 9.9----29.89-0.04- 81.1----
2024-05-19 02:54 pm E 7.0 11.1----29.90-- 81.1----
2024-05-19 02:48 pm SE 5.1 8.9----29.90-- 81.1----
2024-05-19 02:42 pmESE 7.0 9.9----29.90-- 81.1----
2024-05-19 02:36 pmESE 8.0 11.1----29.90-- 81.1----
2024-05-19 02:30 pm SE 6.0 9.9----29.91- 83.3 81.1----
2024-05-19 02:24 pm SE 6.0 11.1----29.91- 82.9 81.1----
2024-05-19 02:18 pm SE 7.0 13.0----29.91- 82.6 81.1----
2024-05-19 02:12 pm SE 7.0 9.9----29.91- 82.8 81.1----
2024-05-19 02:06 pm SE 6.0 11.1----29.91- 82.4 81.1----
2024-05-19 02:00 pmESE 8.0 12.0----29.91-0.04- 81.1----
2024-05-19 01:54 pmESE 7.0 9.9----29.91-- 81.1----
2024-05-19 01:48 pmESE 5.1 8.9----29.91- 82.9 81.0----
2024-05-19 01:42 pm E 5.1 9.9----29.91- 82.8 81.0----
2024-05-19 01:36 pm E 6.0 11.1----29.91- 82.6 81.1----
2024-05-19 01:30 pm E 7.0 9.9----29.91- 82.4 81.0----
2024-05-19 01:24 pm E 7.0 9.9----29.92- 82.6 81.0----
2024-05-19 01:18 pmESE 8.9 11.1----29.92- 82.0 81.0----
2024-05-19 01:12 pmESE 7.0 9.9----29.92- 82.8 81.0----
2024-05-19 01:06 pm E 7.0 9.9----29.92- 82.2 81.0----
2024-05-19 01:00 pmESE 7.0 9.9----29.92-0.01 82.9 80.8----
2024-05-19 12:54 pmESE 7.0 11.1----29.92- 82.2 80.6----